Terminal Aerodrome Forecast
Issued by NWS Charleston, WV

Current Version | Previous Version | Graphics & Text | Print | Product List | Glossary On
Versions: 1 2 3 4 5 6 7 8 9 10 11 12 13 14 15 16 17 18 19 20 21 22 23
000
FTUS41 KRLX 240900 AAA
TAFEKN
TAF AMD
KEKN 240901Z 2409/2506 15008KT 6SM -RA BKN060
     FM241400 18006KT 4SM SHRA BR BKN035
     FM241800 18009G15KT P6SM BKN035
     FM242300 19008G16KT 2SM SHRA BR VCTS OVC025CB
     FM250200 23007KT 4SM SHRA BR VCTS OVC015CB
     FM250500 26007KT 5SM -SHRA BR BKN025=

USA.gov is the U.S. government's official web portal to all federal, state and local government web resources and services.